Location: Olincthun
(50.7501°N, 1.6562°E)
Time: 23:29:13
(UTC+00:00)

Daily predictions for brighter satellites

Satellite Brightness Start Highest point End
(mag) Time Altitude Azimuth Time Altitude Azimuth Time Altitude Azimuth
SPOT 1/Viking Rocket 3.8 20:38:00 10° SSE 20:43:04 61° ENE 20:48:12 10° N
Cosmos 2084 4.4 20:42:34 10° NW 20:46:47 42° SW 20:50:57 10° SSE
ATLAS 2AS CENTAUR R/B 3.2 20:39:45 10° NW 20:47:29 68° NE 20:54:35 10° SE
Lacrosse 5 rocket 2.9 20:47:23 10° WNW 20:51:18 35° N 20:55:00 10° ENE
CZ-4C R/B 4.2 20:47:30 10° NW 20:53:15 32° NNE 20:59:56 10° E
Genesis I 4.3 20:50:40 10° S 20:53:52 25° ESE 20:57:05 10° ENE
Cosmos 1709 Rocket 4.1 20:47:33 10° S 20:53:54 89° WNW 21:00:21 10° N
Terra 2.7 20:50:54 10° SE 20:55:13 36° ENE 20:59:35 10° N
TSX-5 3.7 20:52:15 10° NNW 20:55:47 80° ENE 21:00:07 10° SE
USA 215 4.3 20:54:12 10° ENE 20:59:01 21° SE 21:03:48 10° S
Cosmos 2219 Rocket 2.2 20:54:02 10° SSW 20:59:37 84° ESE 21:05:17 10° NNE
CZ-2C R/B 4.1 20:55:38 10° N 21:00:40 41° WNW 21:05:34 10° SW
ERS-1 Rocket 3.2 20:57:06 10° SSE 21:02:05 63° ENE 21:07:05 10° N
Cosmos 2322 4.2 20:57:37 10° SW 21:03:19 68° WNW 21:09:03 10° NNE
Cosmos 2237 Rocket 2.8 20:59:49 10° S 21:05:00 38° ESE 21:10:13 10° NE
COSMOS 2428 2.7 20:59:23 10° SSW 21:05:03 83° ESE 21:10:47 10° NNE
Cosmos 2360 Rocket 3.7 20:59:58 10° WSW 21:05:19 41° NW 21:10:42 10° NNE
Cosmos 1538 Rocket 4.1 21:00:21 10° SSW 21:05:43 86° ESE 21:11:04 10° NNE
SAR-Lupe-2 3.7 21:09:04 10° NNE 21:12:37 55° ESE 21:16:09 10° S
Resurs 01 Rocket 3.4 21:08:52 10° SSW 21:12:43 29° W 21:16:36 10° NNW
IGS 5A 4.0 21:11:00 10° S 21:15:05 57° W 21:19:12 10° NNW
Cosmos 2184 Rocket 4.2 21:10:42 10° S 21:16:48 57° E 21:22:59 10° NNE
ATLAS 5 CENTAUR R/B 3.5 21:16:10 10° W 21:20:13 37° NNW 21:24:50 10° NE
Cosmos 1371 Rocket 4.3 21:17:53 10° NNW 21:23:07 60° ENE 21:27:51 13° SE
Cosmos 1943 Rocket 3.7 21:18:19 10° NNW 21:23:10 28° NE 21:27:59 10° E
Cosmos 1892 3.1 21:23:56 12° SSE 21:27:17 44° E 21:30:56 10° NNE
Cosmos 2344 4.0 21:23:18 10° S 21:30:06 39° ESE 21:37:17 10° NE
Cosmos 2333 Rocket 2.9 21:24:31 10° SW 21:30:09 60° NW 21:35:52 10° NNE
Cosmos 1869 3.4 21:27:38 10° NNW 21:31:39 77° W 21:35:28 11° S
USA 267 3.6 21:27:13 10° E 21:33:42 66° NNE 21:40:13 10° WNW
Cosmos 2112 Rocket 4.3 21:29:24 10° S 21:34:32 49° ESE 21:39:42 10° NNE
Cosmos 1842 Rocket 3.9 21:31:06 10° NNW 21:35:25 62° W 21:39:40 10° S
Cosmos 2278 Rocket 2.7 21:33:08 10° NW 21:38:39 54° WSW 21:43:46 12° S
Cosmos 2058 2.9 21:37:54 12° S 21:41:45 64° E 21:45:51 10° NNE
Cosmos 2297 4.0 21:40:27 10° NNW 21:46:10 62° NE 21:50:54 15° SE
Cosmos 2056 Rocket 3.6 21:41:06 10° NNW 21:46:33 78° ENE 21:50:54 16° SSE
NOSS 0 Rocket 3.9 21:41:54 10° SSW 21:48:04 88° ESE 21:54:18 10° NNE
Cosmos 44 3.7 21:44:55 11° S 21:48:33 34° ESE 21:52:34 10° NE
Nadezhda 3 Rocket 4.1 21:43:24 10° N 21:49:49 79° E 21:55:11 15° SSE
SL-16 R/B 2.9 21:49:05 15° SSE 21:53:07 34° ESE 21:58:12 10° NE
CREW DRAGON DEMO-1 DEB 2.7 21:51:03 10° WSW 21:54:06 66° SSE 21:57:09 10° ENE
Cosmos 2154 Rocket 4.0 21:51:39 11° S 21:57:33 73° E 22:03:47 10° NNE
Cosmos 2074 Rocket 4.2 21:52:00 10° SSW 21:58:13 75° WNW 22:04:27 10° N
In-Cosmos 22 Rocket 4.1 21:53:48 10° SSW 21:59:06 85° WNW 22:04:31 10° NNE
Cosmos 1680 Rocket 3.5 21:55:53 10° SSW 22:01:13 88° ESE 22:06:35 10° NNE
Cosmos 1340 4.5 22:00:02 15° ESE 22:01:24 17° E 22:03:55 10° NE
Cosmos 2221 3.6 21:58:15 10° NNW 22:02:20 39° W 22:06:23 10° SSW
SPOT 5 3.6 21:57:57 11° S 22:02:25 47° W 22:06:56 10° NNW
Cosmos 1825 2.5 22:01:49 21° SSE 22:04:03 48° E 22:07:44 10° NNE
EP 3 3.3 22:06:54 42° SSW 22:07:24 68° SE 22:09:23 10° NE
COSMOS 2455 3.2 22:01:44 10° NNW 22:07:44 61° NE 22:12:49 15° SE
Cosmos 2341 Rocket 4.3 22:03:39 17° SSE 22:08:16 51° E 22:14:16 10° NNE
ALOS 2 4.2 22:05:09 12° ESE 22:08:16 24° ENE 22:11:49 10° N
Cosmos 371 Rocket 3.6 22:04:28 10° NNW 22:09:18 60° ENE 22:12:39 19° SE
NOSS 3-4 (A) 4.3 22:04:08 10° NW 22:10:50 51° WSW 22:16:34 17° S
NOSS 3-4 (C) 4.3 22:04:15 10° NW 22:10:57 51° WSW 22:16:41 17° SSE
Cosmos 1452 Rocket 4.0 22:07:54 10° NNW 22:13:03 51° ENE 22:16:53 18° SE
MTI 3.5 22:11:41 10° NNE 22:14:47 81° ESE 22:16:31 24° S
GP-B 4.2 22:16:05 10° NNE 22:20:06 32° E 22:22:24 20° SE
GEOS 3 Rocket 3.7 22:15:13 10° NE 22:20:39 88° NW 22:26:04 10° SW
Cosmos 1295 Rocket 4.4 22:17:06 14° S 22:22:24 86° E 22:28:32 10° N
Aureole 2 Rocket 2.5 22:20:06 10° NW 22:22:56 50° WSW 22:24:08 29° S
Gbstr 26 Del rocket 3.2 22:20:01 10° SSW 22:23:26 34° SSE 22:27:01 10° E
Cosmos 2369 Rocket 2.9 22:21:51 10° NNW 22:27:17 47° NE 22:31:45 15° ESE
RESURS DK-1 3.7 22:25:39 10° NNW 22:29:25 33° NE 22:32:35 13° ESE
Cosmos 1328 Rocket 3.8 22:25:16 10° N 22:29:32 56° ENE 22:31:54 25° SE
Lacrosse 5 rocket 1.3 22:26:49 10° WNW 22:30:55 74° NNE 22:33:47 17° ESE
Genesis I 4.2 22:27:27 10° WSW 22:31:15 48° NW 22:35:03 10° NE
Cosmos 1980 4.4 22:26:20 10° SW 22:31:53 55° NW 22:37:27 10° NNE
Cosmos 2151 2.9 22:29:12 21° S 22:31:58 84° E 22:36:15 10° NNE
Cosmos 1408 3.2 22:30:14 16° SSW 22:32:56 50° WNW 22:36:27 10° N
Terra 3.1 22:29:14 13° SSW 22:33:00 34° W 22:37:20 10° NNW
Cosmos 1766 Rocket 3.7 22:32:47 25° SSE 22:35:13 60° E 22:39:36 10° NNE
ATLAS 2AS CENTAUR R/B 3.6 22:31:16 10° NW 22:38:06 39° WSW 22:42:43 18° S
USA 215 3.2 22:36:23 10° ENE 22:42:55 65° SE 22:49:25 10° SW
CZ-4C R/B 3.2 22:36:06 10° NW 22:42:58 68° NE 22:50:53 11° SE
Cosmos 304 Rocket 4.1 22:38:26 10° NNW 22:43:14 61° ENE 22:46:12 23° SE
Meteor 2-3 Rocket 4.2 22:40:15 23° SSE 22:43:32 48° E 22:49:02 10° NNE
Cosmos 2237 Rocket 3.2 22:43:31 10° SW 22:48:59 46° NW 22:54:31 10° NNE
APEX 2.6 22:47:21 10° NW 22:50:02 57° WSW 22:50:36 45° SSW
Okean 3 Rocket 3.6 22:52:12 23° SSW 22:54:57 78° W 22:59:23 10° N
IRIDIUM 106 4.4 22:53:01 25° SSE 22:56:01 70° E 23:01:15 10° N
Cosmos 44 Rocket 4.4 22:55:46 22° SE 22:56:41 24° ESE 23:00:27 10° ENE
Meteor 1-26 Rocket 4.4 22:51:05 10° N 22:57:08 80° ENE 23:00:44 25° SSE
Cosmos 1743 Rocket 4.4 23:00:39 26° SE 23:02:22 37° E 23:06:24 10° NNE
EO 1 Del DPAF 3.1 22:59:05 10° NNE 23:02:52 89° ESE 23:04:35 31° SSW
ISS -1.7 23:05:32 15° E 23:05:32 15° E 23:06:27 10° E
Cosmos 1151 Rocket 3.2 22:59:33 10° NNW 23:03:51 64° W 23:05:57 28° S
Cosmos 1943 Rocket 2.2 23:01:48 10° NNW 23:07:29 73° WSW 23:10:41 26° SSE
BREEZE-M DEB (TANK) 3.2 23:06:59 15° SW 23:09:47 54° SSE 23:19:35 10° ENE
Cosmos 2228 Rocket 3.7 23:05:45 10° N 23:10:14 51° ENE 23:12:32 26° SE
Cosmos 1606 3.6 23:07:27 10° NNW 23:11:08 40° W 23:12:54 25° SSW
Thor Agena Rocket 3.6 23:06:50 10° NNE 23:11:57 76° WNW 23:15:22 21° SSW
Cosmos 864 Rocket 4.5 23:08:32 23° S 23:12:38 85° E 23:18:59 10° N
USA 267 3.3 23:12:07 20° SE 23:16:48 62° SW 23:23:19 10° WNW
Meteor 2-12 Rocket 4.5 23:15:47 22° SSW 23:19:56 81° W 23:26:08 10° N
Cosmos 1408 Rocket 3.6 23:19:41 29° SSW 23:21:55 79° W 23:26:23 10° N
Cosmos 332 Rocket 4.3 23:17:33 10° NW 23:22:08 46° WSW 23:24:18 27° SSW
Cosmos 2366 rocket 4.1 23:18:37 22° SSW 23:22:56 80° W 23:29:19 10° N
Cosmos 1933 4.2 23:19:29 10° NNW 23:23:18 41° W 23:25:03 26° SW
SL-4 R/B 3.8 23:25:17 10° E 23:25:17 10° E 23:25:24 10° E
Cosmos 2218 Rocket 4.1 23:20:06 21° SSW 23:24:29 76° W 23:30:47 10° N
Cosmos 1943 3.8 23:23:21 27° SSE 23:25:52 42° ESE 23:31:11 10° NE
BREEZE-M DEB (TANK) 3.3 23:23:31 10° W 23:25:12 19° WSW 23:25:12 19° WSW
Cosmos 1346 Rocket 2.7 23:25:21 36° S 23:26:55 88° E 23:30:52 10° NNE
Cosmos 1782 2.7 23:23:20 10° NNW 23:27:20 84° WSW 23:28:48 37° S
Lacrosse 5 3.9 23:28:00 12° ESE 23:28:00 12° ESE 23:29:47 10° E
Cosmos 44 4.3 23:25:32 10° WSW 23:29:40 42° NW 23:33:59 10° NNE
CREW DRAGON DEMO-1 DEB 3.0 23:26:49 10° W 23:29:53 72° N 23:32:58 10° E
Cosmos 1821 Rocket 4.3 23:26:32 25° SSE 23:29:56 53° E 23:35:50 10° NNE
Cosmos 1331 Rocket 4.0 23:25:28 10° NNW 23:30:49 82° ENE 23:33:50 27° SSE
Cosmos 1500 Rocket 3.6 23:31:01 33° S 23:32:52 70° E 23:37:14 10° NNE
YAOGAN 11 4.5 23:32:01 27° SE 23:34:16 59° ENE 23:38:41 10° N
Nimbus 7 Rocket 4.4 23:30:40 10° NNE 23:36:37 85° WNW 23:40:24 24° SSW
Cosmos 1340 3.5 23:34:47 24° SW 23:36:41 43° WNW 23:40:19 10° N
ATLAS 5 CENTAUR R/B 4.1 23:34:57 10° NNW 23:36:45 18° NNE 23:39:36 10° ENE
SL-16 R/B 3.0 23:31:33 10° SW 23:37:04 50° NW 23:42:38 10° NNE
Cosmos 1048 Rocket 4.0 23:36:08 26° SSW 23:39:14 87° ESE 23:44:30 10° NNE
Cosmos 2344 4.1 23:36:40 10° WSW 23:44:03 62° NW 23:52:38 10° NE
ALOS 2 3.2 23:42:33 29° SSW 23:44:22 47° W 23:48:38 10° NNW
Cosmos 1633 2.9 23:47:54 34° SW 23:49:13 56° WNW 23:52:47 10° N
Cosmos 1805 Rocket 3.9 23:49:06 32° SSE 23:50:49 53° E 23:55:04 10° NNE
Cosmos 405 3.8 23:47:54 10° NNW 23:51:13 38° W 23:52:07 32° SW
SL-4 R/B 2.1 23:53:04 29° NW 23:53:04 29° NW 23:54:18 10° NNW
Cosmos 1110 Rocket 4.1 23:47:39 10° NNW 23:52:53 64° WSW 23:55:28 30° S
COSMOS 2455 3.8 23:48:05 10° NW 23:53:22 33° WSW 23:55:56 23° SSW
